600  
ASUS43 KLOT 231158  
RWRIL  
 
ILLINOIS REGIONAL WEATHER ROUNDUP  
NATIONAL WEATHER SERVICE CHICAGO/ROMEOVILLE IL  
700 AM CDT SUN APR 23 2017  
 
NOTE: "FAIR" INDICATES FEW OR NO CLOUDS BELOW 12,000 FEET WITH NO  
SIGNIFICANT WEATHER AND/OR S TO VISIBILITY
.  
 
* THESE STATIONS ARE NOT UNDER NWS QUALITY CONTROL. THEY ALSO MAY NOT  
REPORT WEATHER SUCH AS PRECIPITATION OR FOG.
 
 
ILZ001-002-007-009-015-016-024-231300-  
NORTHWEST ILLINOIS  
 
CITY SKY/WX TMP DP RH WIND PRES REMARKS
 
MOLINE NOT AVBL  

 
 
ILZ003-004-008-010-011-017-018-231300-  
NORTH CENTRAL ILLINOIS  
 
CITY SKY/WX TMP DP RH WIND PRES REMARKS
 
ROCKFORD NOT AVBL  

 
 
ILZ005-006-012>014-019>023-231300-  
NORTHEAST ILLINOIS  
 
CITY SKY/WX TMP DP RH WIND PRES REMARKS
 
CHICAGO-OHARE MOSUNNY 41 31 67 W3 30.14R  
6HR MIN TEMP: 37; 6HR MAX TEMP: 43;  
 
CHICAGO-MIDWAY NOT AVBL  
AURORA NOT AVBL  
WAUKEGAN NOT AVBL  
DUPAGE AIRPORT NOT AVBL  
WHEELING NOT AVBL  
NORTHERLY ISL N/A 50 32 50 CALM N/A  

 
 
LMZ740>746-231300-  
SOUTHERN LAKE MICHIGAN  
 
STATION/POSITION SKY/WX TEMP WIND PRES VSBY WAVE
 
AIR SEA DIR/SP/G HT/PER  
(F) (DEG/KT/KT) (MB) (MI) (FT/S)  
HARRISON CRIB 51 210/ 4/ 4 N/A  
BURNHAM HARBOR 49 CALM / 3 N/A  
CALUMET HARBOR 43 190/ 2/ 3 1020.2S  
BURNS HARBOR 46 360/ 2/ 3 1021.7R  
MICHIGAN CITY 42 CALM / 1 N/A  
ST. JOSEPH 46 48 190/ 2/ 4 1021.5R 1/ 3  

 
 
ILZ025>027-034>036-040-047-049-050-058-095>099-231300-  
WEST-CENTRAL ILLINOIS  
 
CITY SKY/WX TMP DP RH WIND PRES REMARKS
 

 
 
ILZ028>032-037-038-041>044-048-051>054-059>061-231300-  
CENTRAL ILLINOIS  
 
CITY SKY/WX TMP DP RH WIND PRES REMARKS
 
PEORIA NOT AVBL  
SPRINGFIELD NOT AVBL  
TAYLORVILLE NOT AVBL  

 
 
ILZ033-039-045-046-055>057-062-063-231300-  
EAST-CENTRAL ILLINOIS  
 
CITY SKY/WX TMP DP RH WIND PRES REMARKS
 

 
 
ILZ079-100>102-231300-  
SOUTHWEST ILLINOIS  
 
CITY SKY/WX TMP DP RH WIND PRES REMARKS
 
ALTON CLEAR 43 28 56 N10 30.10R  

 
 
ILZ064>066-069>071-074>076-080>082-084>086-088>090-092>094-231300-  
SOUTH-CENTRAL ILLINOIS  
 
CITY SKY/WX TMP DP RH WIND PRES REMARKS
 
CARBONDALE CLOUDY 45 38 76 N7 30.03R  
6HR MIN TEMP: 45; 6HR MAX TEMP: 51;  
 
MARION PTCLDY 48 39 71 N9 30.02R  

 
 
ILZ067-068-072-073-078-083-087-091-231300-  
SOUTHEAST ILLINOIS  
 
CITY SKY/WX TMP DP RH WIND PRES REMARKS
 

 
 
ABBREVIATIONS USED IN REMARKS  
TC - TEMPERATURE IN CELSIUS  
WCI - WIND CHILL INDEX  
HX - HEAT INDEX  
VSB - VISIBILITY  

 
 
 
 
CLICK HERE TO GO TO PREVIOUS BULLETINS.

The Nexlab IL Page Main Text Page